Wind_Speed
7 7 9 7 4 5 7 10 8 6 6 11 10 7 4 2 3 3 8 13 20 24 30 35 35 35 40 43 45 50 51 48 47 40 27 19 15 11 11 14 6 6 10 9 8 8 7 4 7
9 9 9 12 16 11 12 14 9 6 5 8 10 6 5 6 6 4 10 15 24 27 31 35 36 39 40 45 48 50 46 45 38 24 21 22 17 11 7 10 5 5 10 10 11 9 6 6 7
13 13 18 22 23 16 16 17 14 13 12 8 7 4 3 6 8 7 10 19 22 28 31 36 38 39 42 44 45 44 42 35 21 21 22 22 9 6 9 12 12 6 7 10 10 7 7 9 11
18 17 25 26 17 18 18 19 16 10 13 9 7 1 4 9 10 11 16 21 24 27 28 35 41 40 42 42 41 39 33 21 21 21 19 22 14 7 11 14 9 10 10 11 8 7 9 8 9
22 21 13 20 36 22 23 17 18 14 14 10 6 5 6 10 12 16 17 20 25 26 30 37 44 41 41 40 37 33 21 21 21 22 18 18 17 13 11 9 7 7 8 7 6 8 11 9 6
34 17 28 23 26 28 23 22 19 18 16 16 14 10 9 13 16 19 18 24 28 32 33 39 45 43 40 35 34 22 21 22 23 24 21 23 23 19 17 13 10 12 10 10 12 15 12 10 8
40 13 20 35 22 23 27 22 22 22 23 21 21 18 21 17 23 23 23 24 29 33 36 39 43 42 36 34 21 20 22 24 26 27 26 27 24 21 22 21 19 17 18 15 15 14 10 9 11
45 46 30 23 22 24 27 24 26 24 25 28 25 25 26 26 23 25 26 25 29 33 36 40 41 37 33 30 18 19 23 25 26 31 38 28 23 29 23 28 23 17 16 16 16 14 10 12 12
43 44 38 29 31 28 28 31 32 27 24 29 29 28 30 30 28 28 26 27 30 33 33 39 36 32 29 16 18 20 22 24 28 37 18 30 25 21 19 25 24 21 19 18 18 15 17 15 18
47 45 44 35 34 35 35 35 33 32 33 30 31 28 30 32 31 28 23 28 32 32 33 35 32 28 19 14 17 20 21 26 35 30 39 37 22 28 31 31 31 26 21 20 20 16 14 15 17
48 43 41 39 36 37 39 38 36 34 31 32 31 27 28 30 31 26 25 27 30 30 34 31 27 21 12 14 16 18 24 32 38 35 32 29 25 25 29 28 25 27 22 17 15 20 20 11 13
47 42 41 39 38 37 37 36 37 36 29 29 26 27 28 29 26 24 25 28 30 30 28 26 23 11 10 12 14 19 27 15 30 34 33 29 27 23 30 34 34 35 28 19 15 19 24 21 27
46 43 42 40 40 38 38 37 38 36 34 28 28 28 27 25 24 24 26 27 24 25 24 20 14 9 9 10 14 22 26 28 28 32 34 38 41 25 46 41 41 35 31 26 19 16 10 12 18
46 45 43 41 41 38 38 38 37 36 36 33 32 30 26 23 22 22 24 21 22 21 17 16 6 4 6 10 17 21 24 27 30 32 36 41 45 41 44 45 45 40 31 29 24 21 17 15 14
39 44 43 44 41 37 37 36 35 35 35 34 30 26 24 24 22 19 22 21 23 15 13 8 3 1 4 12 17 22 26 30 33 35 38 41 47 44 45 48 53 45 36 30 28 29 27 26 19
45 46 44 42 43 39 31 23 32 34 37 33 27 24 22 23 20 21 22 20 17 9 8 3 0 4 7 14 18 23 29 31 33 36 39 42 45 44 58 51 53 47 40 34 31 28 31 31 28
42 39 35 41 40 35 33 36 39 33 38 35 31 28 23 24 23 20 19 18 11 6 4 3 7 8 11 14 18 24 27 29 33 37 40 44 43 48 49 53 56 54 45 35 33 31 32 31 30
39 36 35 41 40 37 38 40 39 18 12 32 28 30 27 26 25 19 18 14 8 6 6 9 10 11 12 15 19 23 26 29 33 36 39 44 44 40 52 58 58 57 47 41 33 33 34 33 32
26 31 13 33 36 32 30 36 44 41 38 29 30 30 28 29 21 19 17 14 10 11 10 13 14 11 10 15 18 22 24 28 31 35 38 43 48 47 46 57 60 60 50 37 33 33 33 33 32
34 22 29 22 43 44 39 36 35 35 35 31 29 29 28 24 19 17 19 14 14 15 15 18 16 12 10 14 16 19 24 27 30 33 37 42 46 50 48 54 61 61 57 43 33 30 31 30 28
36 37 41 41 32 40 35 35 33 33 31 26 25 24 22 20 19 20 19 17 18 16 19 19 15 12 10 11 14 17 22 26 29 32 35 39 43 49 53 52 59 62 60 48 34 29 29 30 29
42 44 33 35 31 32 27 25 24 25 24 22 20 21 23 22 23 26 21 21 22 22 22 19 15 11 8 9 12 16 20 24 28 31 32 36 41 46 50 53 57 59 61 56 41 30 26 26 27
33 31 27 27 28 24 23 19 21 19 21 21 21 23 24 24 28 26 23 27 26 26 23 19 14 9 6 8 11 16 20 24 28 31 30 35 39 43 47 53 52 60 61 59 44 35 27 25 27
38 34 30 27 25 22 21 18 25 19 15 19 22 24 27 29 29 25 29 32 28 29 25 20 14 9 5 7 10 15 19 24 27 31 32 34 38 41 43 50 53 56 60 61 56 40 31 29 29
38 33 31 29 27 28 28 26 22 16 21 20 23 26 30 33 34 31 36 35 33 32 27 21 16 10 6 5 8 12 17 22 27 31 34 34 37 39 40 46 50 56 59 62 62 52 39 33 33
36 32 33 35 30 34 29 29 22 20 24 25 35 28 33 34 37 36 38 37 33 31 26 21 16 11 7 4 6 10 15 21 26 31 34 34 36 39 41 43 48 49 56 60 63 62 48 39 37
41 36 40 38 35 33 30 26 23 37 35 37 38 33 35 36 40 44 42 40 35 32 27 21 16 12 7 2 4 9 14 19 24 29 32 34 35 39 40 45 47 47 55 59 63 62 58 45 38
44 45 43 36 35 34 32 23 27 38 40 30 28 34 35 40 45 48 45 41 37 33 27 22 17 14 9 4 4 8 12 17 21 26 31 34 35 38 41 45 48 48 51 56 63 62 62 52 42
44 41 40 40 37 34 29 28 30 32 38 37 37 38 36 45 49 50 47 43 38 34 28 24 20 16 10 6 6 8 11 15 20 24 29 34 35 36 38 42 46 50 50 55 61 61 62 61 49
44 44 44 38 32 32 41 29 11 28 30 38 38 40 43 47 51 51 49 44 40 36 31 26 22 18 12 9 9 10 12 16 19 23 29 33 35 36 36 45 45 48 51 53 58 62 63 64 58
Wind_Direction
198 218 210 242 155 167 160 155 156 131 101 152 153 166 182 218 273 328 349 346 351 348 347 340 340 336 332 330 325 328 329 333 335 337 345 348 350 337 317 309 300 281 321 282 270 299 297 288 4
213 230 266 255 223 171 162 163 158 176 177 168 178 195 226 231 270 9 356 341 348 351 345 340 339 339 332 327 325 327 332 336 341 350 355 344 342 336 335 4 327 272 312 317 278 307 310 306 348
230 239 232 227 195 193 175 175 189 184 181 180 186 198 305 355 308 279 315 342 347 350 345 340 344 335 333 332 330 332 338 345 1 357 356 360 9 33 336 318 316 266 308 310 296 308 325 321 333
239 257 270 239 205 182 185 186 191 180 170 174 147 232 12 341 346 333 316 319 332 340 342 343 345 339 336 332 334 340 346 360 359 353 6 12 13 334 322 316 317 318 306 317 328 337 339 13 7
228 246 226 251 220 215 204 193 199 214 220 210 205 286 292 307 314 321 316 329 334 333 334 337 346 344 338 338 339 347 0 1 5 11 10 9 16 12 358 345 348 8 8 2 344 342 337 339 3
199 266 247 237 225 201 215 227 232 233 238 246 239 257 283 310 317 326 331 332 333 332 326 332 343 340 337 339 350 2 1 9 13 13 13 13 9 8 3 349 344 341 340 356 349 341 328 310 294
212 256 222 230 225 226 218 240 242 248 253 257 258 267 294 306 311 316 327 327 329 330 328 331 337 337 338 346 3 2 7 10 19 22 23 18 14 6 357 345 334 337 334 330 310 303 291 282 291
222 232 246 249 241 234 234 245 242 244 247 254 262 264 286 299 305 310 317 322 328 328 330 332 333 335 343 349 2 4 13 18 24 26 24 16 19 29 357 354 349 333 326 328 318 315 320 314 298
219 227 236 233 237 235 237 247 245 247 246 262 260 268 281 293 300 301 310 319 323 324 329 329 332 338 346 2 1 13 19 23 26 42 41 22 33 18 359 359 352 346 346 334 324 329 326 310 301
219 226 237 239 238 241 245 245 240 246 257 263 264 271 281 292 292 296 308 315 320 322 324 327 333 341 354 5 5 23 23 27 30 37 28 34 16 11 4 355 351 353 351 333 326 312 317 313 296
217 226 235 234 232 236 243 243 244 246 250 253 256 265 280 285 287 297 307 313 316 321 320 327 333 346 5 1 22 30 32 31 30 36 23 21 19 11 4 357 351 348 345 317 302 264 299 273 254
219 226 228 232 234 235 236 240 241 248 244 249 261 263 270 282 290 300 307 309 310 315 319 325 335 355 6 12 29 34 42 65 32 37 31 24 19 23 14 10 6 355 355 340 300 273 260 260 270
223 227 228 226 232 233 238 240 242 243 246 250 259 266 273 283 290 300 302 301 311 310 317 328 344 10 0 30 41 43 45 43 36 32 26 25 21 21 13 13 11 7 356 358 351 345 333 292 277
222 226 230 228 232 235 240 243 246 246 250 254 255 263 272 281 283 289 293 301 306 307 316 329 357 9 9 43 53 54 49 45 38 33 28 31 29 24 20 16 18 12 15 18 35 42 33 26 36
226 224 225 229 233 236 241 247 255 256 253 254 258 263 269 275 280 280 289 298 298 302 316 326 346 12 52 65 60 59 55 49 43 40 33 33 32 31 24 19 21 16 26 37 43 47 51 55 67
220 226 226 226 230 231 234 243 257 253 254 252 253 254 257 266 269 280 285 288 287 298 303 282 107 124 89 75 67 60 53 47 44 41 37 34 32 34 22 24 25 23 28 40 42 48 52 52 56
218 220 217 221 226 224 230 229 237 255 241 246 246 252 254 263 270 276 278 276 271 283 247 187 147 120 92 80 65 58 52 46 41 40 37 36 35 39 29 28 29 29 28 38 44 49 50 47 49
211 215 227 226 226 226 229 229 231 241 230 238 249 249 253 259 262 267 270 251 236 233 181 166 144 119 102 81 67 59 50 43 40 36 34 35 34 32 34 32 29 30 28 29 38 42 43 43 42
197 203 200 230 225 217 219 230 233 243 257 253 251 249 248 253 247 254 245 227 209 189 185 163 138 126 100 81 67 59 50 41 36 33 30 30 31 31 32 32 30 32 31 28 33 36 37 34 33
187 190 209 208 226 230 239 241 247 243 247 244 240 240 239 239 240 236 223 205 198 181 181 159 144 133 106 84 68 56 49 39 34 28 27 28 28 30 31 31 29 30 30 30 31 36 39 38 36
189 193 212 215 195 233 230 237 226 234 233 233 232 229 230 223 222 211 199 203 187 186 179 159 149 138 108 81 64 51 48 40 30 25 24 27 25 27 30 31 28 30 29 32 29 34 37 37 37
193 209 214 220 216 223 222 223 228 225 219 219 220 221 219 213 201 193 198 198 181 182 176 161 155 139 111 77 56 45 41 34 29 22 20 24 24 23 27 30 28 26 29 31 32 35 38 37 41
201 209 213 212 217 217 221 213 227 224 221 217 219 224 216 205 201 194 196 190 184 182 172 166 159 147 116 73 53 41 34 26 24 21 20 21 23 23 24 26 25 25 29 27 30 31 31 30 29
210 206 206 210 207 205 208 210 227 219 231 243 225 223 218 205 208 195 192 189 185 181 174 172 166 159 128 75 49 36 27 20 19 19 19 18 20 20 22 25 25 23 26 25 26 25 26 26 24
212 209 211 213 207 210 212 216 216 217 208 264 244 234 218 206 209 199 194 190 185 185 179 175 175 173 142 86 40 27 19 14 14 14 16 18 17 16 17 18 22 23 23 24 23 21 19 20 19
215 212 215 217 211 214 213 222 195 192 190 184 254 236 216 202 203 199 194 192 188 188 185 180 183 181 158 103 25 15 9 12 10 11 12 15 15 14 14 14 17 18 20 23 20 18 16 14 15
213 205 214 215 214 215 209 212 167 182 189 209 226 227 209 204 198 196 192 190 188 192 188 186 188 185 175 155 1 357 0 6 5 6 7 10 12 13 14 13 13 14 17 20 19 15 13 10 10
210 209 216 216 214 213 199 193 202 205 205 215 225 216 204 207 197 194 194 191 190 194 190 192 197 197 190 213 313 340 350 356 356 359 1 6 9 11 12 11 11 11 13 16 16 14 11 7 3
215 216 222 220 217 207 202 196 213 222 226 232 235 211 204 204 199 193 196 192 192 196 194 196 203 205 208 229 287 320 337 345 349 351 356 1 4 8 10 10 7 7 9 12 13 11 10 5 1
211 212 216 213 214 209 189 184 235 242 251 242 224 198 203 204 200 197 196 194 193 196 197 202 208 210 217 242 277 304 322 332 341 343 351 357 358 359 4 8 4 4 4 5 9 9 8 5 359
Height
11023 11029 11032 11032 11031 11027 11031 11030 11033 11036 11036 11034 11034 11034 11034 11034 11033 11034 11034 11033 11031 11028 11024 11021 11016 11012 11007 11000 10993 10988 10981 10975 10968 10962 10958 10955 10954 10953 10952 10950 10950 10950 10951 10952 10952 10951 10950 10949 10949
11022 11029 11033 11032 11031 11028 11030 11032 11034 11037 11038 11036 11035 11035 11034 11034 11034 11034 11033 11032 11030 11027 11023 11019 11015 11010 11004 10997 10991 10986 10980 10972 10967 10962 10959 10955 10953 10951 10950 10950 10949 10950 10950 10950 10950 10951 10949 10948 10948
11024 11028 11032 11025 11030 11032 11031 11032 11035 11036 11038 11038 11036 11035 11035 11035 11034 11034 11033 11031 11029 11026 11022 11019 11015 11008 11002 10996 10990 10985 10978 10972 10968 10964 10959 10956 10953 10951 10950 10950 10950 10949 10948 10949 10950 10951 10950 10949 10948
11030 11034 11031 11022 11026 11027 11030 11030 11034 11035 11036 11037 11036 11035 11034 11034 11035 11034 11033 11031 11028 11025 11022 11019 11014 11007 11001 10995 10991 10984 10978 10974 10971 10965 10961 10958 10954 10952 10951 10949 10949 10948 10950 10951 10952 10951 10951 10950 10948
11035 11027 11024 11018 11019 11024 11025 11029 11033 11034 11036 11036 11035 11035 11034 11034 11034 11033 11032 11031 11028 11025 11021 11018 11013 11007 11001 10996 10990 10985 10981 10977 10972 10968 10963 10959 10957 10954 10952 10951 10950 10950 10952 10953 10954 10954 10951 10948 10946
11006 11009 11005 11019 11018 11022 11023 11025 11032 11034 11035 11036 11035 11034 11034 11034 11033 11032 11030 11029 11026 11023 11020 11017 11012 11006 11001 10996 10991 10986 10983 10979 10975 10970 10966 10963 10960 10958 10956 10954 10954 10954 10955 10955 10954 10950 10945 10941 10939
11009 10995 10993 11002 11008 11019 11021 11023 11029 11033 11035 11035 11035 11034 11033 11033 11032 11030 11029 11028 11025 11022 11018 11016 11011 11005 11000 10996 10992 10989 10985 10981 10977 10973 10971 10970 10967 10963 10959 10957 10956 10953 10950 10947 10943 10937 10933 10935 10938
10998 10998 10999 11002 11007 11013 11018 11020 11024 11030 11031 11033 11033 11033 11032 11031 11030 11029 11028 11026 11024 11021 11017 11014 11009 11004 11001 10996 10994 10990 10986 10981 10979 10977 10973 10972 10969 10962 10953 10958 10956 10949 10944 10940 10936 10932 10932 10934 10934
10995 10997 10997 10999 11004 11012 11015 11018 11021 11024 11028 11030 11030 11031 11031 11029 11028 11028 11027 11025 11022 11019 11016 11012 11007 11004 11001 10998 10996 10992 10987 10982 10982 10985 10977 10978 10971 10970 10967 10962 10957 10946 10942 10937 10933 10933 10932 10928 10928
10992 10991 10996 10999 11005 11009 11011 11013 11017 11019 11022 11024 11027 11028 11027 11027 11026 11026 11025 11022 11021 11018 11015 11011 11007 11005 11003 11000 10997 10993 10988 10986 10987 10982 10982 10977 10966 10965 10962 10960 10952 10942 10939 10932 10926 10925 10926 10926 10924
10986 10991 10997 10997 11002 11005 11009 11009 11011 11014 11018 11020 11022 11022 11023 11024 11024 11024 11024 11022 11020 11018 11015 11010 11007 11006 11004 11002 10999 10995 10992 10990 10985 10984 10980 10971 10967 10961 10962 10955 10946 10939 10935 10927 10926 10922 10922 10920 10917
10980 10985 10990 10994 10997 11002 11002 11005 11007 11010 11014 11015 11017 11018 11019 11020 11021 11022 11022 11020 11019 11017 11013 11009 11008 11007 11005 11004 11001 10998 10994 10997 10989 10984 10977 10975 10971 10964 10960 10952 10941 10931 10926 10922 10917 10915 10912 10910 10906
10976 10980 10983 10987 10990 10994 10997 11002 11003 11007 11009 11010 11013 11015 11016 11017 11018 11019 11020 11018 11017 11015 11011 11009 11009 11007 11007 11005 11003 10999 10995 10994 10992 10985 10977 10974 10964 10958 10955 10947 10937 10930 10922 10913 10906 10902 10902 10902 10900
10969 10974 10978 10981 10986 10989 10993 10996 10998 11001 11004 11007 11010 11013 11014 11014 11016 11017 11017 11017 11015 11012 11009 11009 11009 11009 11008 11007 11005 11002 10998 10996 10992 10984 10976 10973 10966 10961 10955 10949 10939 10931 10925 10916 10911 10907 10904 10900 10901
10962 10963 10971 10977 10982 10987 10991 10994 10996 10999 11000 11004 11006 11008 11010 11011 11013 11015 11015 11014 11012 11010 11009 11009 11010 11011 11010 11009 11007 11005 11002 10999 10996 10989 10980 10978 10973 10965 10958 10951 10937 10933 10925 10919 10917 10913 10910 10908 10905
10952 10959 10966 10972 10976 10981 10987 10991 10986 10990 10995 10998 11001 11004 11005 11008 11010 11011 11011 11011 11010 11009 11009 11010 11011 11012 11011 11010 11008 11006 11002 11000 10998 10994 10986 10979 10969 10961 10956 10951 10946 10935 10925 10919 10917 10915 10911 10909 10909
10947 10956 10961 10964 10968 10976 10981 10981 10982 10984 10984 10992 10995 10999 11001 11004 11007 11007 11008 11008 11007 11008 11010 11010 11012 11013 11012 11011 11009 11006 11003 11002 10999 10996 10992 10986 10974 10965 10966 10956 10948 10938 10928 10922 10917 10915 10911 10908 10907
10938 10951 10956 10956 10957 10966 10973 10975 10978 10979 10979 10989 10991 10994 10996 11000 11002 11004 11005 11005 11006 11008 11010 11011 11013 11013 11013 11012 11010 11007 11005 11002 10999 10997 10994 10990 10984 10975 10969 10959 10950 10939 10928 10921 10918 10916 10913 10911 10908
10939 10948 10956 10953 10954 10960 10965 10969 10973 10975 10980 10982 10987 10989 10992 10996 10999 11000 11001 11003 11004 11007 11010 11012 11013 11013 11013 11012 11011 11009 11006 11004 11001 10998 10994 10989 10982 10977 10970 10961 10952 10941 10932 10925 10921 10918 10915 10912 10910
10930 10937 10944 10946 10952 10952 10957 10963 10966 10973 10974 10977 10981 10984 10987 10991 10993 10995 10998 11000 11003 11007 11010 11012 11013 11014 11013 11012 11012 11010 11008 11005 11002 10999 10994 10989 10983 10978 10970 10961 10953 10943 10935 10929 10925 10922 10918 10915 10912
10925 10931 10933 10942 10946 10946 10951 10955 10961 10964 10967 10971 10976 10979 10983 10986 10988 10992 10995 10998 11001 11006 11010 11011 11013 11014 11014 11013 11012 11012 11009 11007 11004 10999 10995 10990 10985 10979 10971 10962 10957 10948 10940 10932 10929 10925 10921 10917 10913
10922 10924 10931 10935 10939 10945 10949 10952 10956 10959 10963 10967 10971 10974 10979 10982 10984 10988 10992 10996 11000 11005 11009 11011 11012 11013 11013 11013 11012 11012 11010 11007 11004 11001 10997 10992 10987 10981 10973 10965 10960 10951 10942 10936 10930 10927 10923 10919 10915
10916 10920 10924 10929 10935 10940 10945 10949 10952 10956 10960 10964 10968 10972 10976 10979 10982 10986 10990 10995 10999 11004 11008 11010 11012 11013 11013 11012 11012 11011 11010 11008 11004 11001 10997 10992 10987 10981 10975 10968 10960 10953 10943 10937 10930 10926 10923 10918 10914
10906 10913 10920 10926 10931 10938 10943 10947 10947 10953 10958 10962 10965 10968 10973 10977 10981 10984 10988 10993 10998 11003 11006 11008 11011 11012 11012 11011 11012 11010 11009 11007 11004 11001 10996 10991 10986 10981 10976 10969 10962 10955 10947 10939 10932 10926 10922 10918 10913
10903 10910 10916 10921 10928 10933 10936 10941 10946 10951 10956 10958 10963 10965 10969 10973 10978 10982 10985 10991 10995 11001 11005 11007 11009 11011 11011 11011 11011 11010 11009 11007 11004 11000 10995 10990 10987 10982 10977 10971 10963 10957 10948 10940 10934 10927 10921 10917 10910
10897 10905 10910 10914 10920 10923 10930 10935 10941 10945 10947 10974 10958 10961 10964 10969 10974 10979 10984 10990 10995 11000 11004 11006 11008 11009 11010 11011 11011 11010 11008 11006 11003 10999 10995 10991 10987 10982 10976 10970 10963 10956 10950 10940 10933 10927 10921 10915 10908
10888 10897 10899 10904 10912 10917 10924 10930 10938 10941 10941 10947 10953 10956 10960 10966 10970 10975 10981 10987 10993 10998 11002 11005 11007 11008 11009 11009 11010 11009 11008 11005 11002 10999 10996 10991 10987 10982 10976 10970 10963 10956 10950 10942 10935 10927 10920 10913 10906
10880 10884 10890 10901 10908 10913 10918 10922 10930 10934 10936 10940 10945 10949 10956 10962 10966 10972 10979 10984 10990 10996 10999 11002 11005 11007 11007 11008 11008 11008 11006 11004 11002 10999 10996 10991 10987 10981 10975 10969 10963 10957 10951 10942 10933 10927 10920 10912 10905
10874 10883 10889 10893 10900 10907 10914 10917 10920 10926 10932 10934 10939 10945 10951 10957 10962 10969 10976 10981 10987 10993 10996 11000 11003 11005 11006 11007 11007 11006 11005 11004 11001 10998 10995 10990 10985 10980 10974 10968 10962 10956 10949 10942 10934 10928 10919 10911 10904
10865 10872 10878 10888 10897 10905 10908 10912 10917 10923 10926 10931 10933 10938 10945 10953 10959 10966 10972 10979 10984 10989 10993 10997 11000 11003 11003 11004 11005 11004 11003 11002 11000 10997 10994 10989 10984 10979 10973 10966 10960 10954 10948 10942 10934 10926 10916 10907 10900